Location: Columbia
(38.9520°N, 92.3340°W)
Time: 01:13:01
(UTC-05:00)

FENGYUN 3A - Visible Passes

Search period start: 24 April 2014 00:00
Search period end: 04 May 2014 00:00
Orbit: 820 x 834 km, 98.6° (Epoch: 23 April)

Date Brightness Start Highest point End Pass type
(mag) Time Alt. Az. Time Alt. Az. Time Alt. Az.
24 Apr 3.5 22:02:09 50° SSE 22:03:34 76° ENE 22:08:55 10° N visible
24 Apr 6.1 23:43:39 12° W 23:44:20 12° W 23:46:26 10° WNW visible
25 Apr 3.9 21:43:09 36° ESE 21:44:56 51° ENE 21:50:07 10° N visible
25 Apr 5.6 23:24:39 18° WSW 23:25:27 19° W 23:29:10 10° NW visible
26 Apr 4.4 21:24:09 25° ESE 21:26:22 35° ENE 21:31:10 10° N visible
26 Apr 5.1 23:05:39 27° WSW 23:06:36 28° W 23:11:10 10° NW visible
27 Apr 4.9 21:05:08 16° ESE 21:07:51 24° ENE 21:12:03 10° NNE visible
27 Apr 4.5 22:46:38 37° SW 22:47:48 42° W 22:52:52 10° NNW visible
28 Apr 5.3 20:46:08 10° E 20:49:23 17° ENE 20:52:40 10° NNE visible
28 Apr 3.9 22:27:38 46° SSW 22:29:03 63° WSW 22:34:23 10° NNW visible
29 Apr 5.6 20:29:24 10° ENE 20:30:58 11° ENE 20:32:33 10° NE visible
29 Apr 3.5 22:08:38 45° SSE 22:10:22 88° ENE 22:15:45 10° NNW visible
29 Apr 6.2 23:51:03 10° W 23:51:15 10° W 23:51:27 10° W visible
30 Apr 3.7 21:49:38 35° SE 21:51:43 59° ENE 21:57:00 10° N visible
30 Apr 5.8 23:31:08 15° WSW 23:32:20 16° W 23:35:34 10° NW visible
01 May 4.2 21:30:38 25° ESE 21:33:08 40° ENE 21:38:06 10° N visible
01 May 5.3 23:12:08 22° WSW 23:13:28 24° W 23:17:46 10° NW visible
02 May 4.7 21:11:38 17° ESE 21:14:35 28° ENE 21:19:04 10° N visible
02 May 4.8 22:53:08 30° SW 22:54:39 36° W 22:59:34 10° NNW visible
03 May 5.2 20:52:38 11° ESE 20:56:06 19° ENE 20:59:48 10° NNE visible
03 May 4.1 22:34:08 38° SSW 22:35:53 54° W 22:41:09 10° NNW visible
